KE0FIN Weather Reports


Display with metric or nautical units.
time (UTC)temp
F
wind
direction
speed
MPH
gust
MPH
rain 1hr
in
rain 24hr
in
rain mn
in
humidity
%
barometer
mb
20260510132337 58 127 1.0 2.0 0.00 0.00 0.00 51 1072.7
20260510131834 58 113 1.0 3.0 0.00 0.00 0.00 52 1072.9
20260510131332 58 131 0.0 1.0 0.00 0.00 0.00 54 1072.5
20260510130828 57 114 0.0 7.0 0.00 0.00 0.00 54 1072.3
20260510130325 57 112 1.0 3.0 0.00 0.00 0.00 55 1072.2
20260510125822 57 122 0.0 1.0 0.00 0.00 0.00 56 1072.1
20260510125317 57 103 2.0 3.0 0.00 0.00 0.00 56 1071.9
20260510124815 57 128 2.0 6.0 0.00 0.00 0.00 57 1071.9
20260510124312 58 114 1.0 2.0 0.00 0.00 0.00 58 1071.7
20260510123807 58 111 1.0 1.0 0.00 0.00 0.00 59 1071.4
20260510123303 58 130 0.0 2.0 0.00 0.00 0.00 60 1071.0
20260510122759 58 132 1.0 3.0 0.00 0.00 0.00 60 1070.8
20260510122255 58 137 0.0 4.0 0.00 0.00 0.00 61 1070.5
20260510121752 58 110 1.0 2.0 0.00 0.00 0.00 61 1070.5
20260510121249 58 118 1.0 4.0 0.00 0.00 0.00 59 1070.5
20260510120747 59 111 2.0 3.0 0.00 0.00 0.00 61 1070.4
20260510120243 59 97 2.0 4.0 0.00 0.00 0.00 58 1070.4
20260510115739 59 124 0.0 1.0 0.00 0.00 0.00 58 1070.0
20260510115237 59 99 0.0 3.0 0.00 0.00 0.00 58 1069.7
20260510114733 59 130 0.0 1.0 0.00 0.00 0.00 61 1069.4
20260510114230 59 133 1.0 2.0 0.00 0.00 0.00 62 1069.2
20260510113725 59 106 2.0 6.0 0.00 0.00 0.00 61 1069.0
20260510113222 59 137 1.0 8.0 0.00 0.00 0.00 61 1068.7
20260510112718 59 107 2.0 2.0 0.00 0.00 0.00 62 1068.7
20260510112215 59 117 1.0 3.0 0.00 0.00 0.00 62 1068.6
20260510111711 59 121 1.0 3.0 0.00 0.00 0.00 63 1068.2
20260510111208 59 102 1.0 4.0 0.00 0.00 0.00 63 1068.2
20260510110702 59 120 1.0 8.0 0.00 0.00 0.00 64 1068.2
20260510110200 59 126 1.0 4.0 0.00 0.00 0.00 64 1068.3
20260510105655 58 69 2.0 4.0 0.00 0.00 0.00 65 1068.3
20260510105155 58 135 2.0 9.0 0.00 0.00 0.00 65 1068.4
20260510104652 58 100 4.0 8.0 0.00 0.00 0.00 66 1068.5
20260510104149 58 122 1.0 3.0 0.00 0.00 0.00 66 1068.4
20260510103646 58 128 2.0 6.0 0.00 0.00 0.00 65 1068.5
20260510103143 58 139 2.0 7.0 0.00 0.00 0.00 65 1068.5
20260510102638 58 65 4.0 7.0 0.00 0.00 0.00 65 1068.4
20260510102134 58 143 0.0 4.0 0.00 0.00 0.00 66 1068.2
20260510101632 58 107 2.0 2.0 0.00 0.00 0.00 66 1068.0
20260510101130 58 69 3.0 6.0 0.00 0.00 0.00 66 1068.0
20260510100625 58 61 5.0 6.0 0.00 0.00 0.00 66 1067.9
20260510100123 59 169 2.0 6.0 0.00 0.00 0.00 66 1067.8
20260510095624 59 124 1.0 6.0 0.00 0.00 0.00 66 1067.7
20260510095119 59 96 1.0 4.0 0.00 0.00 0.00 65 1067.7
20260510094618 59 90 2.0 6.0 0.00 0.00 0.00 65 1067.5
20260510094113 59 142 2.0 4.0 0.00 0.00 0.00 64 1067.5
20260510093610 60 110 3.0 6.0 0.00 0.00 0.00 63 1067.2
20260510093107 60 155 1.0 4.0 0.00 0.00 0.00 63 1067.3
20260510092604 60 113 1.0 3.0 0.00 0.00 0.00 63 1067.3
20260510092103 60 116 3.0 4.0 0.00 0.00 0.00 63 1067.1
20260510091600 60 133 2.0 8.0 0.00 0.00 0.00 63 1067.2
20260510091056 60 91 1.0 3.0 0.00 0.00 0.00 63 1067.0
20260510090554 60 101 2.0 6.0 0.00 0.00 0.00 62 1067.1
20260510090049 60 63 2.0 3.0 0.00 0.00 0.00 62 1067.1
20260510085544 61 81 4.0 6.0 0.00 0.00 0.00 62 1067.0
20260510085040 61 73 4.0 7.0 0.00 0.00 0.00 62 1066.9
20260510084537 61 114 1.0 7.0 0.00 0.00 0.00 61 1067.0
20260510084034 61 88 3.0 4.0 0.00 0.00 0.00 61 1066.8
20260510083530 61 127 1.0 3.0 0.00 0.00 0.00 61 1066.9
20260510083027 61 78 1.0 3.0 0.00 0.00 0.00 61 1066.9
20260510082524 61 79 2.0 4.0 0.00 0.00 0.00 61 1066.8
20260510082019 61 123 1.0 6.0 0.00 0.00 0.00 61 1066.6
20260510081514 61 90 2.0 6.0 0.00 0.00 0.00 61 1066.8
20260510081010 62 119 1.0 4.0 0.00 0.00 0.00 62 1066.6
20260510080509 62 123 1.0 3.0 0.00 0.00 0.00 61 1066.8
20260510080006 62 100 0.0 2.0 0.00 0.00 0.00 61 1066.6
20260510075504 62 99 0.0 1.0 0.00 0.00 0.00 61 1066.6
20260510075000 62 130 0.0 6.0 0.00 0.00 0.00 59 1066.3
20260510074458 63 109 1.0 6.0 0.00 0.00 0.00 59 1066.3
20260510073953 63 123 0.0 6.0 0.00 0.00 0.00 59 1066.3
20260510073449 63 88 2.0 4.0 0.00 0.00 0.00 58 1066.6
20260510072946 63 123 2.0 4.0 0.00 0.00 0.00 58 1066.3
20260510072443 63 125 1.0 3.0 0.00 0.00 0.00 58 1066.3
20260510071938 63 126 0.0 1.0 0.00 0.00 0.00 58 1066.2
20260510071435 63 110 3.0 4.0 0.00 0.00 0.00 58 1066.2
20260510070933 63 116 2.0 3.0 0.00 0.00 0.00 59 1066.0
20260510070430 63 127 0.0 4.0 0.00 0.00 0.00 59 1066.0
20260510065926 63 137 1.0 6.0 0.00 0.00 0.00 59 1066.0
20260510065423 63 132 0.0 3.0 0.00 0.00 0.00 59 1066.0
20260510064919 63 88 1.0 2.0 0.00 0.00 0.00 59 1065.9
20260510064417 64 115 0.0 1.0 0.00 0.00 0.00 59 1065.6
20260510063913 64 123 0.0 4.0 0.00 0.00 0.00 58 1065.5
20260510063409 64 121 0.0 3.0 0.00 0.00 0.00 58 1065.7
20260510062907 64 89 3.0 3.0 0.00 0.00 0.00 57 1065.5
20260510062402 65 121 0.0 3.0 0.00 0.00 0.00 57 1065.6
20260510061858 65 122 1.0 3.0 0.00 0.00 0.00 56 1065.6
20260510061355 65 120 0.0 2.0 0.00 0.00 0.00 56 1065.3
20260510060850 66 133 0.0 2.0 0.00 0.00 0.00 55 1065.2
20260510060347 66 101 2.0 4.0 0.00 0.00 0.00 54 1065.4
20260510055843 66 127 1.0 3.0 0.00 0.00 0.00 54 1065.0
20260510055343 67 108 0.0 3.0 0.00 0.00 0.00 53 1064.9
20260510054837 67 90 0.0 2.0 0.00 0.00 0.00 53 1064.9
20260510054333 67 107 0.0 2.0 0.00 0.00 0.00 52 1065.1
20260510053828 67 117 0.0 4.0 0.00 0.00 0.00 52 1064.9
20260510053323 67 115 0.0 2.0 0.00 0.00 0.00 53 1064.7
20260510052820 66 122 0.0 1.0 0.00 0.00 0.00 53 1064.4
20260510052316 66 123 0.0 2.0 0.00 0.00 0.00 54 1064.3
20260510051812 66 128 0.0 2.0 0.00 0.00 0.00 55 1064.4
20260510051309 66 130 0.0 1.0 0.00 0.00 0.00 55 1064.5
20260510050805 66 120 0.0 1.0 0.00 0.00 0.00 56 1064.4
20260510050257 66 113 2.0 2.0 0.00 0.00 0.00 56 1064.7
20260510045754 66 115 0.0 3.0 0.00 0.00 0.00 57 1064.6
20260510045250 66 119 0.0 1.0 0.00 0.00 0.00 57 1064.8
20260510044747 66 122 0.0 2.0 0.00 0.00 0.00 57 1064.7
20260510044245 66 119 1.0 1.0 0.00 0.00 0.00 58 1064.4
20260510043740 66 122 0.0 2.0 0.00 0.00 0.00 57 1064.6
20260510043237 66 119 0.0 1.0 0.00 0.00 0.00 58 1064.6
20260510042734 66 117 1.0 1.0 0.00 0.00 0.00 58 1064.5
20260510042230 67 115 0.0 0.0 0.00 0.00 0.00 58 1064.4
20260510041727 67 115 0.0 0.0 0.00 0.00 0.00 57 1064.3
20260510041224 67 129 0.0 1.0 0.00 0.00 0.00 57 1064.5
20260510040721 67 113 0.0 1.0 0.00 0.00 0.00 56 1064.5
20260510040218 67 122 0.0 1.0 0.00 0.00 0.00 57 1064.3
20260510035713 66 124 0.0 0.0 0.00 0.00 0.00 59 1063.9
20260510035210 66 117 0.0 1.0 0.00 0.00 0.00 60 1063.9
20260510034705 66 117 0.0 1.0 0.00 0.00 0.00 63 1063.8
20260510034203 66 117 0.0 0.0 0.00 0.00 0.00 64 1064.4
20260510033659 66 118 0.0 0.0 0.00 0.00 0.00 66 1064.3
20260510033157 66 118 0.0 0.0 0.00 0.00 0.00 65 1064.1
20260510032653 67 118 0.0 0.0 0.00 0.00 0.00 65 1064.0
20260510032149 68 118 0.0 0.0 0.00 0.00 0.00 62 1064.1
20260510031643 68 118 0.0 0.0 0.00 0.00 0.00 60 1063.9
20260510031140 69 118 0.0 1.0 0.00 0.00 0.00 59 1063.8
20260510030635 69 119 0.0 0.0 0.00 0.00 0.00 55 1063.7
20260510030133 70 118 0.0 0.0 0.00 0.00 0.00 51 1063.6
20260510025630 70 118 0.0 0.0 0.00 0.00 0.00 51 1063.6
20260510025127 70 118 0.0 0.0 0.00 0.00 0.00 51 1063.3
20260510024624 71 118 0.0 0.0 0.00 0.00 0.00 50 1063.2
20260510024120 71 122 0.0 0.0 0.00 0.00 0.00 50 1063.0
20260510023616 71 127 0.0 0.0 0.00 0.00 0.00 49 1062.9
20260510023114 71 127 0.0 1.0 0.00 0.00 0.00 48 1062.5
20260510022614 72 133 0.0 1.0 0.00 0.00 0.00 47 1062.4
20260510022108 72 128 1.0 1.0 0.00 0.00 0.00 47 1062.2
20260510021604 73 120 0.0 2.0 0.00 0.00 0.00 47 1061.6
20260510021102 73 125 1.0 4.0 0.00 0.00 0.00 46 1060.9
20260510020556 74 143 0.0 2.0 0.00 0.00 0.00 45 1062.0
20260510020052 74 122 1.0 4.0 0.00 0.00 0.00 43 1062.3
20260510015548 75 134 1.0 2.0 0.00 0.00 0.00 43 1063.0
20260510015044 75 138 0.0 1.0 0.00 0.00 0.00 42 1062.7
20260510014541 76 121 0.0 1.0 0.00 0.00 0.00 40 1062.8
20260510014038 77 221 1.0 2.0 0.00 0.00 0.00 39 1062.9
20260510013532 77 270 3.0 6.0 0.00 0.00 0.00 38 1063.2
20260510013028 77 175 1.0 9.0 0.00 0.00 0.00 37 1063.0
20260510012527 77 193 2.0 3.0 0.00 0.00 0.00 37 1062.8
20260510012024 77 143 2.0 3.0 0.00 0.00 0.00 36 1062.9
20260510011519 77 135 0.0 1.0 0.00 0.00 0.00 36 1062.6
20260510011015 77 134 0.0 1.0 0.00 0.00 0.00 35 1062.1
20260510010512 78 125 0.0 1.0 0.00 0.00 0.00 35 1062.0
20260510010009 78 123 0.0 3.0 0.00 0.00 0.00 35 1061.5
20260510005504 78 102 2.0 3.0 0.00 0.00 0.00 34 1061.0
20260510005002 77 125 1.0 1.0 0.00 0.00 0.00 34 1061.0
20260510004459 77 126 0.0 0.0 0.00 0.00 0.00 34 1060.4
20260510003957 77 126 0.0 0.0 0.00 0.00 0.00 36 1060.1
20260510003454 78 126 0.0 0.0 0.00 0.00 0.00 36 1059.5
20260510002949 78 126 0.0 0.0 0.00 0.00 0.00 35 1059.4
20260510002445 78 126 0.0 0.0 0.00 0.00 0.00 35 1059.1
20260510001942 79 126 0.0 0.0 0.00 0.00 0.00 35 1059.1
20260510001439 80 126 0.0 0.0 0.00 0.00 0.00 35 1058.7
20260510000937 80 126 0.0 0.0 0.00 0.00 0.00 32 1059.2
20260510000433 80 126 0.0 0.0 0.00 0.00 0.00 32 1059.0
20260509235929 81 126 0.0 0.0 0.00 0.00 0.00 32 1059.1
20260509235426 82 126 0.0 0.0 0.00 0.00 0.00 31 1059.1
20260509234922 82 126 0.0 0.0 0.00 0.00 0.00 29 1059.1
20260509234419 82 126 0.0 0.0 0.00 0.00 0.00 29 1059.0
20260509233918 82 126 0.0 1.0 0.00 0.00 0.00 30 1059.0
20260509233415 82 146 0.0 0.0 0.00 0.00 0.00 28 1059.1
20260509232911 83 146 0.0 2.0 0.00 0.00 0.00 25 1059.1
20260509232409 84 136 0.0 1.0 0.00 0.00 0.00 27 1059.2
20260509231904 85 138 0.0 1.0 0.00 0.00 0.00 25 1059.4
20260509231401 86 141 0.0 1.0 0.00 0.00 0.00 25 1059.0
20260509230859 84 143 0.0 1.0 0.00 0.00 0.00 30 1059.1
20260509230356 83 144 0.0 0.0 0.00 0.00 0.00 30 1059.2
20260509225851 83 144 0.0 1.0 0.00 0.00 0.00 26 1059.4
20260509225348 83 144 0.0 0.0 0.00 0.00 0.00 29 1059.7
20260509224844 83 144 0.0 0.0 0.00 0.00 0.00 28 1059.6
20260509224340 83 144 0.0 1.0 0.00 0.00 0.00 29 1059.6
20260509223837 83 144 0.0 0.0 0.00 0.00 0.00 27 1059.2
20260509223334 83 144 0.0 1.0 0.00 0.00 0.00 27 1059.6
20260509222831 83 144 0.0 1.0 0.00 0.00 0.00 27 1059.5
20260509222326 83 144 0.0 1.0 0.00 0.00 0.00 26 1059.4
20260509221822 84 153 1.0 2.0 0.00 0.00 0.00 25 1059.5
20260509221320 84 143 1.0 1.0 0.00 0.00 0.00 25 1059.2
20260509220819 84 144 0.0 1.0 0.00 0.00 0.00 24 1059.2
20260509220316 84 185 2.0 3.0 0.00 0.00 0.00 24 1059.4
20260509215811 85 159 1.0 2.0 0.00 0.00 0.00 23 1059.5
20260509215308 85 154 1.0 3.0 0.00 0.00 0.00 24 1059.5
20260509214805 86 138 1.0 2.0 0.00 0.00 0.00 25 1059.2
20260509214302 87 138 0.0 1.0 0.00 0.00 0.00 23 1059.5
20260509213759 88 157 2.0 3.0 0.00 0.00 0.00 23 1059.2
20260509213255 89 180 1.0 1.0 0.00 0.00 0.00 23 1059.2
20260509212752 88 180 2.0 4.0 0.00 0.00 0.00 23 1059.5
20260509212250 87 129 1.0 3.0 0.00 0.00 0.00 24 1059.4
20260509211745 87 163 2.0 2.0 0.00 0.00 0.00 24 1059.5
20260509211242 87 172 2.0 3.0 0.00 0.00 0.00 23 1059.6
20260509210738 89 166 3.0 8.0 0.00 0.00 0.00 23 1059.8
20260509210237 89 186 1.0 2.0 0.00 0.00 0.00 22 1059.7
20260509205736 89 141 2.0 3.0 0.00 0.00 0.00 22 1059.7
20260509205236 87 77 2.0 4.0 0.00 0.00 0.00 23 1059.9
20260509204732 85 129 0.0 2.0 0.00 0.00 0.00 24 1059.9
20260509204228 86 128 1.0 3.0 0.00 0.00 0.00 24 1060.0
20260509203724 87 124 0.0 1.0 0.00 0.00 0.00 25 1059.9
20260509203223 87 122 1.0 2.0 0.00 0.00 0.00 22 1060.0
20260509202718 87 18 2.0 2.0 0.00 0.00 0.00 22 1060.0
20260509202214 89 158 2.0 6.0 0.00 0.00 0.00 22 1060.2
20260509201708 88 141 1.0 3.0 0.00 0.00 0.00 23 1060.1
20260509201206 88 149 1.0 3.0 0.00 0.00 0.00 23 1060.1
20260509200702 87 130 1.0 1.0 0.00 0.00 0.00 26 1060.1
20260509200157 86 28 2.0 4.0 0.00 0.00 0.00 24 1060.3
20260509195654 87 113 1.0 3.0 0.00 0.00 0.00 23 1060.2
20260509195149 87 173 2.0 2.0 0.00 0.00 0.00 25 1060.5
20260509194648 86 134 0.0 2.0 0.00 0.00 0.00 24 1060.7
20260509194146 87 181 3.0 4.0 0.00 0.00 0.00 23 1060.6
20260509193641 87 135 1.0 2.0 0.00 0.00 0.00 25 1060.5
20260509193137 86 99 1.0 2.0 0.00 0.00 0.00 23 1060.7
20260509192634 86 155 1.0 1.0 0.00 0.00 0.00 25 1060.8
20260509192130 86 172 1.0 2.0 0.00 0.00 0.00 26 1060.9
20260509191629 85 136 0.0 1.0 0.00 0.00 0.00 25 1060.9
20260509191126 85 155 0.0 1.0 0.00 0.00 0.00 28 1060.9
20260509190622 84 307 2.0 2.0 0.00 0.00 0.00 25 1060.9
20260509190120 83 156 1.0 3.0 0.00 0.00 0.00 27 1060.8
20260509185618 84 128 4.0 6.0 0.00 0.00 0.00 25 1060.7
20260509185113 84 153 1.0 2.0 0.00 0.00 0.00 28 1060.9
20260509184612 84 136 0.0 2.0 0.00 0.00 0.00 27 1061.2
20260509184108 84 126 2.0 4.0 0.00 0.00 0.00 26 1061.0
20260509183603 84 16 4.0 7.0 0.00 0.00 0.00 26 1061.2
20260509183059 83 207 1.0 4.0 0.00 0.00 0.00 27 1061.1
20260509182556 83 122 0.0 3.0 0.00 0.00 0.00 27 1061.1
20260509182053 84 134 2.0 3.0 0.00 0.00 0.00 28 1061.3
20260509181551 83 249 3.0 4.0 0.00 0.00 0.00 26 1061.6
20260509181048 83 306 2.0 3.0 0.00 0.00 0.00 28 1061.6
20260509180543 82 167 1.0 4.0 0.00 0.00 0.00 28 1061.6
20260509180042 83 327 2.0 4.0 0.00 0.00 0.00 27 1061.6
20260509175537 83 134 2.0 2.0 0.00 0.00 0.00 30 1061.7
20260509175034 82 160 4.0 7.0 0.00 0.00 0.00 30 1061.7
20260509174530 82 344 5.0 7.0 0.00 0.00 0.00 29 1061.7
20260509174026 82 141 4.0 4.0 0.00 0.00 0.00 30 1061.9
20260509173520 83 182 2.0 7.0 0.00 0.00 0.00 30 1061.9
20260509173017 82 66 0.0 4.0 0.00 0.00 0.00 31 1062.1
20260509172514 82 128 3.0 4.0 0.00 0.00 0.00 31 1062.3
20260509172009 81 273 4.0 4.0 0.00 0.00 0.00 31 1062.5
20260509171506 80 148 2.0 7.0 0.00 0.00 0.00 33 1062.7
20260509171002 79 183 2.0 2.0 0.00 0.00 0.00 35 1062.4
20260509170458 78 309 1.0 2.0 0.00 0.00 0.00 36 1062.5
20260509165954 78 213 2.0 3.0 0.00 0.00 0.00 36 1062.4
20260509165453 79 147 4.0 8.0 0.00 0.00 0.00 35 1062.5
20260509164949 79 134 2.0 6.0 0.00 0.00 0.00 35 1062.7
20260509164444 79 139 1.0 2.0 0.00 0.00 0.00 37 1062.6
20260509163941 79 181 2.0 8.0 0.00 0.00 0.00 37 1062.6
20260509163438 78 304 1.0 3.0 0.00 0.00 0.00 39 1062.7
20260509162937 78 159 1.0 6.0 0.00 0.00 0.00 39 1063.0
20260509162436 77 129 1.0 6.0 0.00 0.00 0.00 39 1062.7
20260509161932 76 204 1.0 6.0 0.00 0.00 0.00 40 1062.7
20260509161428 77 320 1.0 3.0 0.00 0.00 0.00 39 1062.7
20260509160924 77 196 2.0 7.0 0.00 0.00 0.00 39 1062.6
20260509160420 76 211 3.0 4.0 0.00 0.00 0.00 40 1062.5
20260509155915 76 140 1.0 3.0 0.00 0.00 0.00 41 1062.4
20260509155412 76 179 1.0 3.0 0.00 0.00 0.00 40 1062.6
20260509154908 76 175 2.0 6.0 0.00 0.00 0.00 41 1062.5
20260509154405 76 137 2.0 6.0 0.00 0.00 0.00 41 1062.6
20260509153901 76 293 1.0 4.0 0.00 0.00 0.00 40 1062.4
20260509153359 78 239 1.0 3.0 0.00 0.00 0.00 40 1062.3
20260509152856 77 189 3.0 4.0 0.00 0.00 0.00 42 1062.3
20260509152352 77 131 1.0 4.0 0.00 0.00 0.00 43 1062.5
20260509151849 76 131 1.0 2.0 0.00 0.00 0.00 43 1062.6
20260509151345 75 135 2.0 4.0 0.00 0.00 0.00 46 1062.6
20260509150843 74 162 1.0 2.0 0.00 0.00 0.00 49 1062.5
20260509150341 73 126 0.0 2.0 0.00 0.00 0.00 49 1062.4
20260509145838 72 208 1.0 4.0 0.00 0.00 0.00 51 1062.3
20260509145332 72 134 1.0 2.0 0.00 0.00 0.00 52 1062.4
20260509144829 71 305 3.0 3.0 0.00 0.00 0.00 52 1062.3
20260509144326 71 144 1.0 3.0 0.00 0.00 0.00 53 1062.3
20260509143823 70 117 0.0 4.0 0.00 0.00 0.00 55 1062.1
20260509143321 69 182 2.0 4.0 0.00 0.00 0.00 54 1062.1
20260509142817 70 199 2.0 3.0 0.00 0.00 0.00 54 1062.3
20260509142313 69 107 1.0 2.0 0.00 0.00 0.00 56 1062.3
20260509141808 68 119 0.0 1.0 0.00 0.00 0.00 58 1062.4
20260509141306 67 251 5.0 6.0 0.00 0.00 0.00 58 1062.1
20260509140802 67 162 0.0 3.0 0.00 0.00 0.00 59 1062.1
20260509140259 66 220 1.0 3.0 0.00 0.00 0.00 62 1062.1
20260509135758 65 123 0.0 2.0 0.00 0.00 0.00 64 1062.1
20260509135255 63 125 0.0 3.0 0.00 0.00 0.00 66 1062.2
20260509134752 62 199 3.0 3.0 0.00 0.00 0.00 69 1062.4
20260509134249 61 146 1.0 3.0 0.00 0.00 0.00 71 1062.4
20260509133746 61 133 0.0 1.0 0.00 0.00 0.00 72 1062.4
20260509133243 60 143 0.0 1.0 0.00 0.00 0.00 73 1062.1
20260509132742 59 145 1.0 2.0 0.00 0.00 0.00 75 1062.3